2020 PM7
ephemeris date magn radius delta ra dec elong phase
Today5 Sep 202629.34.004 AU4.876 AU12h35m-02°28'27.0°6.6°
2020 PM7 - 2026-09-05
astro.vanbuitenen.nl


 
-1 year
-1 month
-1 day
Now
+1 day
+1 month
+1 year

The interactive orbit chart above shows the body's path through the solar system and its position at the given date. Green and blue lines are shown perpendicular to the ecliptic plane: Green if the path is above the ecliptic plane, blue if it is below. (Left-click and drag to rotate the view; Right-click and drag to move the view; Use scroll wheel to zoom in our out.)

The orbital elements of 2020 PM7 are:

            e (Eccentricity)                : 0.5978984
            a (Semimajor axis)              : 2.5071721
            i (Inclination)                 : 5.10869
            Ω (Longitude of ascending node) : 178.74539
            ω (Argument of perihelion)      : 198.66165
            M (Mean anomaly)                : 152.65917
            Epoch                           : 2026 Jun 09

            L (Longitude of perihelion)     : 197.33801
            B (Latitude of perihelion)      : -1.63273
            P (Orbital period in years)     : 3.97            
        

The light curve chart below shows the estimated development of the minor planet's magnitude.


The all-sky chart below shows the path of the minor planet over the same period as the light curve. The current position is marked yellow.





The following chart shows the path of the minor planet in the next few days. The field of view is optimized for (~10x50) binoculars and finderscopes.




Ephemerides:
Date       Time       RA (2000)    DEC (2000)    delta   radius  elong  phase   PA    magn
2026-09-05 00:00 UT   12 35 12.3   -02 28 05     4.876    4.004   27.0    6.6   111   29.3 
2026-09-05 12:42 UT   12 35 41.0   -02 31 02     4.880    4.004   26.6    6.5   111   29.3 
2026-09-06 00:00 UT   12 36 06.5   -02 33 38     4.883    4.004   26.3    6.4   111   29.3 
2026-09-07 00:00 UT   12 37 01.0   -02 39 12     4.890    4.004   25.5    6.2   111   29.3 
2026-09-08 00:00 UT   12 37 55.7   -02 44 47     4.896    4.004   24.8    6.1   110   29.3 
2026-09-09 00:00 UT   12 38 50.5   -02 50 22     4.903    4.004   24.1    5.9   110   29.3 
2026-09-10 00:00 UT   12 39 45.5   -02 55 58     4.909    4.005   23.4    5.7   110   29.3 
2026-09-11 00:00 UT   12 40 40.7   -03 01 35     4.915    4.005   22.6    5.6   110   29.3 
2026-09-12 00:00 UT   12 41 36.1   -03 07 12     4.921    4.005   21.9    5.4   110   29.3 
2026-09-13 00:00 UT   12 42 31.6   -03 12 50     4.927    4.005   21.2    5.2   110   29.2 
2026-09-14 00:00 UT   12 43 27.3   -03 18 28     4.932    4.005   20.5    5.0   110   29.2 
2026-09-15 00:00 UT   12 44 23.1   -03 24 07     4.938    4.005   19.8    4.9   109   29.2 
2026-09-16 00:00 UT   12 45 19.1   -03 29 46     4.943    4.006   19.0    4.7   109   29.2 
2026-09-17 00:00 UT   12 46 15.2   -03 35 25     4.948    4.006   18.3    4.5   109   29.2 
2026-09-18 00:00 UT   12 47 11.5   -03 41 05     4.952    4.006   17.6    4.3   109   29.2 
2026-09-19 00:00 UT   12 48 07.8   -03 46 46     4.957    4.006   16.9    4.2   109   29.2 
2026-09-20 00:00 UT   12 49 04.4   -03 52 26     4.961    4.006   16.1    4.0   108   29.2 
2026-09-21 00:00 UT   12 50 01.0   -03 58 07     4.965    4.006   15.4    3.8   108   29.2 
2026-09-22 00:00 UT   12 50 57.8   -04 03 48     4.969    4.006   14.7    3.6   108   29.2 
2026-09-23 00:00 UT   12 51 54.7   -04 09 29     4.973    4.006   14.0    3.5   108   29.2 
2026-09-24 00:00 UT   12 52 51.7   -04 15 10     4.976    4.006   13.3    3.3   107   29.2 
2026-09-25 00:00 UT   12 53 48.8   -04 20 51     4.979    4.006   12.6    3.1   107   29.2 
2026-09-26 00:00 UT   12 54 46.0   -04 26 32     4.982    4.006   11.8    2.9   106   29.1 
2026-09-27 00:00 UT   12 55 43.3   -04 32 14     4.985    4.006   11.1    2.8   106   29.1 
2026-09-28 00:00 UT   12 56 40.7   -04 37 55     4.988    4.006   10.4    2.6   106   29.1 
2026-09-29 00:00 UT   12 57 38.3   -04 43 36     4.990    4.006    9.7    2.4   105   29.1 
2026-09-30 00:00 UT   12 58 35.9   -04 49 17     4.992    4.006    9.0    2.2   104   29.1 
2026-10-01 00:00 UT   12 59 33.6   -04 54 58     4.995    4.006    8.2    2.1   103   29.1 
2026-10-02 00:00 UT   13 00 31.4   -05 00 39     4.996    4.006    7.5    1.9   102   29.1 
2026-10-03 00:00 UT   13 01 29.2   -05 06 20     4.998    4.006    6.8    1.7   101   29.1 
2026-10-04 00:00 UT   13 02 27.2   -05 12 00     4.999    4.006    6.1    1.5   100   29.0 
2026-10-05 00:00 UT   13 03 25.2   -05 17 40     5.001    4.006    5.4    1.3    98   29.0 


    Terminology:
            
    delta:  distance between minor planet and earth in AU
    radius: distance between minor planet and sun in AU
    magn:   magnitude (brightness) estimate    
    ra:     right ascension in hours (24h = 360deg)
    dec:    declination in degrees
    elong:  elongation in degrees (angle sun-earth-minor planet)    
    phase:  phase angle in degrees (angle sun-minor planet-earth)        
    AU:     Astronomical Unit (mean distance between earth and sun: 149597870.7 km
    

Orbital elements provided by the MPC (Minor Planet Center).
Calculations by a modified version of AAPlus, a C# implementation of the AA+ project by PJ Naughter from the algorithms presented in the book "Astronomical Algorithms" by Jean Meeus.
NGC2000 dso catalog and star labels from VizieR as provided by the Strasbourg astronomical Data Center.
Tycho2 catalog from the ESO archive.